Airfield :
LOGIN :

Register | Disclaimer

   EN    FR    IT 

 










Legend :    VFR   Marginal VFR   IFR   Intensive IFR   Very Intensive IFR
Visi :
Ceiling :
>= 8 km
>= 3000ft
5 to 8 km
1000 to 3000 ft
1500m to 5 km
500 to 1000 ft
800 to 1500m
200 to 500 ft
< 800m
< 200 ft
Symbols :   Thunderstorms  Fog  Heavy snow  Heavy precipitations  Wind > 20 kt
SIGMETs :     Misc.  Thunderstorms  Icing  Turbulence  Mountain Waves  Volcanic Ashes






- Airport Elevation : 102 ft
- IATA code : EXT


EGTE - Exeter

CURRENT METAR :
  • 231420Z 04004KT 9999 OVC016 05/02 Q1033

EXPIRED METARs :
  • 231350Z 03004KT 9999 OVC016 05/02 Q1033
  • 231320Z 04006KT 9999 OVC015 05/02 Q1034
  • 231250Z 04005KT 9999 OVC015 05/02 Q1034
  • 231220Z 03006KT 9999 OVC015 04/01 Q1034
  • 231150Z 03005KT 350V050 9999 OVC015 04/01 Q1035

TAF TAF EGTE
Valid from the 23 at 15:00 until the 24 at 00:00 UTC


231358Z 2315/2324 09005KT 9999 BKN018
PROB40
TEMPO 2315/2324 BKN010



MET'MAP, your aeronautical weather chart ! - Copyright ORBIFLY December 2007 - Disclaimer

ORBIFLY MET'MAP TEAM :

Programming & Development : Alexandra Zaïnal
Concept & original design : Baudouin d'Aumeries
Assistance for programming : Marc-Olivier Méhu
Technical & hardware support : Manuel Goepfert

Contact : metmap@orbifly.com




SOURCES & CREDITS :

   NOAA